Location: Braunsdorf
(50.7357°N, 11.9136°E)
Time: 17:03:13
(UTC+00:00)

CZ-2C R/B - Pass Details

Date: 17 February 2020
Orbit: 641 x 704 km, 98.4° (Epoch: 06 April)

Event Time Altitude Azimuth Distance (km) Brightness Sun altitude
Rises 05:29:35 0° 151° (SSE) 2,939 7.6 -8.9°
Reaches altitude 10° 05:31:48 10° 147° (SSE) 2,033 6.8 -8.5°
Maximum altitude 05:36:07 56° 70° (ENE) 772 4.4 -7.9°
Drops below altitude 10° 05:40:29 10° 353° (N) 2,056 6.1 -7.2°
Sets 05:42:44 0° 349° (N) 2,976 6.8 -6.8°
